TimeEST,TemperatureF,Dew PointF,Humidity,Sea Level PressureIn,VisibilityMPH,Wind Direction,Wind SpeedMPH,Gust SpeedMPH,PrecipitationIn,Events,Conditions,WindDirDegrees,DateUTC
12:15 AM,55.4,50.0,82,30.24,10.0,ENE,4.6,-,N/A,,Overcast,60,2013-11-21 05:15:00
12:35 AM,55.4,50.0,82,30.24,10.0,ENE,4.6,-,N/A,,Overcast,60,2013-11-21 05:35:00
12:55 AM,55.4,50.0,82,30.24,10.0,ENE,5.8,-,N/A,,Overcast,60,2013-11-21 05:55:00
1:15 AM,55.4,50.0,82,30.24,10.0,ENE,6.9,-,N/A,,Overcast,60,2013-11-21 06:15:00
1:35 AM,55.4,51.8,88,30.23,10.0,NE,5.8,-,N/A,,Overcast,50,2013-11-21 06:35:00
1:55 AM,55.4,51.8,88,30.23,10.0,ENE,8.1,-,N/A,,Overcast,60,2013-11-21 06:55:00
2:15 AM,55.4,51.8,88,30.24,10.0,NE,5.8,-,N/A,,Overcast,50,2013-11-21 07:15:00
2:35 AM,55.4,51.8,88,30.24,10.0,NE,5.8,-,N/A,,Overcast,50,2013-11-21 07:35:00
2:55 AM,55.4,51.8,88,30.24,10.0,NE,5.8,-,N/A,,Overcast,50,2013-11-21 07:55:00
3:15 AM,55.4,51.8,88,30.24,10.0,ENE,5.8,-,N/A,,Overcast,60,2013-11-21 08:15:00
3:35 AM,55.4,51.8,88,30.24,10.0,NE,6.9,-,N/A,,Overcast,50,2013-11-21 08:35:00
3:55 AM,55.4,51.8,88,30.24,10.0,NE,8.1,-,N/A,,Overcast,40,2013-11-21 08:55:00
4:15 AM,55.4,51.8,88,30.25,10.0,NE,6.9,-,N/A,,Overcast,50,2013-11-21 09:15:00
4:35 AM,55.4,51.8,88,30.25,10.0,NE,6.9,-,N/A,,Overcast,50,2013-11-21 09:35:00
4:55 AM,55.4,51.8,88,30.25,10.0,NE,9.2,-,N/A,,Overcast,40,2013-11-21 09:55:00
5:15 AM,55.4,51.8,88,30.25,10.0,NE,6.9,-,N/A,,Overcast,50,2013-11-21 10:15:00
5:35 AM,55.4,51.8,88,30.26,10.0,NE,5.8,-,N/A,,Overcast,50,2013-11-21 10:35:00
5:55 AM,55.4,51.8,88,30.26,10.0,NE,4.6,-,N/A,,Overcast,50,2013-11-21 10:55:00
6:15 AM,55.4,51.8,88,30.26,10.0,NE,5.8,-,N/A,,Overcast,50,2013-11-21 11:15:00
6:35 AM,55.4,51.8,88,30.26,10.0,ENE,5.8,-,N/A,,Overcast,60,2013-11-21 11:35:00
6:55 AM,55.4,51.8,88,30.27,10.0,ENE,4.6,-,N/A,,Scattered Clouds,70,2013-11-21 11:55:00
7:15 AM,55.4,51.8,88,30.28,10.0,East,4.6,-,N/A,,Scattered Clouds,80,2013-11-21 12:15:00
7:35 AM,55.4,51.8,88,30.28,10.0,ENE,4.6,-,N/A,,Mostly Cloudy,60,2013-11-21 12:35:00
7:55 AM,55.4,51.8,88,30.28,10.0,NE,6.9,-,N/A,,Mostly Cloudy,50,2013-11-21 12:55:00
8:15 AM,55.4,51.8,88,30.29,10.0,ENE,5.8,-,N/A,,Scattered Clouds,60,2013-11-21 13:15:00
8:35 AM,55.4,51.8,88,30.29,10.0,ENE,5.8,-,N/A,,Mostly Cloudy,60,2013-11-21 13:35:00
8:55 AM,57.2,53.6,88,30.30,10.0,NE,5.8,-,N/A,,Overcast,50,2013-11-21 13:55:00
9:15 AM,59.0,53.6,82,30.30,10.0,NE,4.6,-,N/A,,Overcast,50,2013-11-21 14:15:00
9:35 AM,59.0,53.6,82,30.30,10.0,NE,6.9,-,N/A,,Mostly Cloudy,50,2013-11-21 14:35:00
9:55 AM,59.0,53.6,82,30.30,10.0,NE,5.8,-,N/A,,Overcast,50,2013-11-21 14:55:00
10:15 AM,60.8,55.4,82,30.30,10.0,ENE,8.1,-,N/A,,Mostly Cloudy,60,2013-11-21 15:15:00
10:35 AM,62.6,55.4,77,30.30,10.0,ENE,6.9,-,N/A,,Mostly Cloudy,70,2013-11-21 15:35:00
10:55 AM,62.6,57.2,82,30.30,10.0,ENE,6.9,-,N/A,,Scattered Clouds,70,2013-11-21 15:55:00
11:15 AM,64.4,57.2,77,30.30,10.0,East,5.8,-,N/A,,Scattered Clouds,80,2013-11-21 16:15:00
11:35 AM,66.2,59.0,78,30.29,10.0,ENE,5.8,-,N/A,,Overcast,70,2013-11-21 16:35:00
11:55 AM,66.2,59.0,78,30.29,10.0,ENE,5.8,-,N/A,,Mostly Cloudy,60,2013-11-21 16:55:00
12:15 PM,68.0,59.0,73,30.28,10.0,ENE,6.9,-,N/A,,Scattered Clouds,60,2013-11-21 17:15:00
12:35 PM,68.0,59.0,73,30.27,10.0,NNE,5.8,-,N/A,,Mostly Cloudy,30,2013-11-21 17:35:00
12:55 PM,68.0,59.0,73,30.27,10.0,NE,8.1,-,N/A,,Mostly Cloudy,40,2013-11-21 17:55:00
1:15 PM,68.0,59.0,73,30.26,10.0,NNE,5.8,-,N/A,,Mostly Cloudy,30,2013-11-21 18:15:00
1:35 PM,68.0,59.0,73,30.26,10.0,NE,8.1,-,N/A,,Mostly Cloudy,40,2013-11-21 18:35:00
1:55 PM,69.8,59.0,68,30.26,10.0,NNE,5.8,-,N/A,,Mostly Cloudy,30,2013-11-21 18:55:00
2:15 PM,69.8,59.0,68,30.25,10.0,ENE,5.8,-,N/A,,Scattered Clouds,60,2013-11-21 19:15:00
2:35 PM,71.6,60.8,69,30.24,10.0,East,4.6,-,N/A,,Clear,80,2013-11-21 19:35:00
2:55 PM,71.6,60.8,69,30.24,10.0,NE,6.9,-,N/A,,Mostly Cloudy,50,2013-11-21 19:55:00
3:15 PM,71.6,60.8,69,30.23,10.0,NE,4.6,-,N/A,,Scattered Clouds,50,2013-11-21 20:15:00
3:35 PM,71.6,60.8,69,30.23,10.0,NE,4.6,-,N/A,,Clear,50,2013-11-21 20:35:00
3:55 PM,71.6,60.8,69,30.23,10.0,East,3.5,-,N/A,,Scattered Clouds,100,2013-11-21 20:55:00
4:15 PM,71.6,60.8,69,30.24,10.0,NNE,4.6,-,N/A,,Scattered Clouds,30,2013-11-21 21:15:00
4:35 PM,71.6,62.6,73,30.24,10.0,Calm,Calm,-,N/A,,Mostly Cloudy,0,2013-11-21 21:35:00
4:55 PM,69.8,62.6,78,30.24,10.0,NE,3.5,-,N/A,,Overcast,50,2013-11-21 21:55:00
5:15 PM,69.8,62.6,78,30.24,10.0,NNE,3.5,-,N/A,,Mostly Cloudy,30,2013-11-21 22:15:00
5:35 PM,68.0,62.6,83,30.24,10.0,Calm,Calm,-,N/A,,Mostly Cloudy,0,2013-11-21 22:35:00
5:55 PM,68.0,62.6,83,30.25,10.0,Calm,Calm,-,N/A,,Overcast,0,2013-11-21 22:55:00
6:15 PM,66.2,62.6,88,30.26,10.0,Calm,Calm,-,N/A,,Mostly Cloudy,0,2013-11-21 23:15:00
6:35 PM,66.2,62.6,88,30.26,10.0,Calm,Calm,-,N/A,,Mostly Cloudy,0,2013-11-21 23:35:00
6:55 PM,66.2,62.6,88,30.26,10.0,NE,4.6,-,N/A,,Mostly Cloudy,50,2013-11-21 23:55:00
7:15 PM,64.4,60.8,88,30.27,10.0,NE,4.6,-,N/A,,Scattered Clouds,40,2013-11-22 00:15:00
7:35 PM,64.4,60.8,88,30.27,10.0,NE,3.5,-,N/A,,Scattered Clouds,40,2013-11-22 00:35:00
7:55 PM,64.4,60.8,88,30.28,10.0,NE,3.5,-,N/A,,Scattered Clouds,40,2013-11-22 00:55:00
8:15 PM,64.4,60.8,88,30.28,10.0,NE,4.6,-,N/A,,Clear,50,2013-11-22 01:15:00
8:35 PM,62.6,60.8,94,30.28,10.0,Calm,Calm,-,N/A,,Clear,0,2013-11-22 01:35:00
8:55 PM,62.6,60.8,94,30.28,10.0,NE,3.5,-,N/A,,Clear,50,2013-11-22 01:55:00
9:15 PM,62.6,60.8,94,30.29,10.0,NE,5.8,-,N/A,,Clear,40,2013-11-22 02:15:00
9:35 PM,62.6,59.0,88,30.29,10.0,NE,4.6,-,N/A,,Scattered Clouds,50,2013-11-22 02:35:00
9:55 PM,62.6,59.0,88,30.30,10.0,Calm,Calm,-,N/A,,Scattered Clouds,0,2013-11-22 02:55:00
10:15 PM,60.8,59.0,94,30.30,10.0,Calm,Calm,-,N/A,,Clear,0,2013-11-22 03:15:00
10:35 PM,60.8,59.0,94,30.31,10.0,Calm,Calm,-,N/A,,Scattered Clouds,0,2013-11-22 03:35:00
10:55 PM,60.8,59.0,94,30.31,10.0,NE,4.6,-,N/A,,Overcast,50,2013-11-22 03:55:00
11:15 PM,60.8,59.0,94,30.31,10.0,Calm,Calm,-,N/A,,Overcast,0,2013-11-22 04:15:00
11:35 PM,60.8,59.0,94,30.31,10.0,ENE,5.8,-,N/A,,Overcast,70,2013-11-22 04:35:00
11:55 PM,60.8,59.0,94,30.30,10.0,ENE,3.5,-,N/A,,Overcast,70,2013-11-22 04:55:00